Time,TemperatureF,DewpointF,PressureIn,WindDirection,WindDirectionDegrees,WindSpeedMPH,WindSpeedGustMPH,Humidity,HourlyPrecipIn,Conditions,Clouds,dailyrainin,SoftwareType,DateUTC
2013-01-26 00:00:00,67.1,64.1,30.08,South,181,5.0,6.0,90,0.00,,,0.00,Wunderground v.1.15,2013-01-26 06:00:00,
2013-01-26 00:10:00,67.0,64.3,30.08,SSW,194,5.0,9.0,91,0.00,,,0.00,Wunderground v.1.15,2013-01-26 06:10:00,
2013-01-26 00:15:00,66.9,64.2,30.08,South,181,5.0,9.0,91,0.00,,,0.00,Wunderground v.1.15,2013-01-26 06:15:00,
2013-01-26 00:20:00,66.8,64.1,30.08,SSW,212,6.0,6.0,91,0.00,,,0.00,Wunderground v.1.15,2013-01-26 06:20:00,
2013-01-26 00:25:00,66.7,64.0,30.08,SSE,157,5.0,6.0,91,0.00,,,0.00,Wunderground v.1.15,2013-01-26 06:25:00,
2013-01-26 00:30:00,66.7,64.0,30.08,SE,141,5.0,5.0,91,0.00,,,0.00,Wunderground v.1.15,2013-01-26 06:30:00,
2013-01-26 00:35:00,66.6,63.9,30.08,SSW,192,6.0,6.0,91,0.00,,,0.00,Wunderground v.1.15,2013-01-26 06:35:00,
2013-01-26 00:40:00,66.5,63.8,30.07,SSW,197,5.0,5.0,91,0.00,,,0.00,Wunderground v.1.15,2013-01-26 06:40:00,
2013-01-26 00:50:00,66.4,63.7,30.07,South,176,5.0,5.0,91,0.00,,,0.00,Wunderground v.1.15,2013-01-26 06:50:00,
2013-01-26 00:55:00,66.3,63.6,30.07,South,179,5.0,6.0,91,0.00,,,0.00,Wunderground v.1.15,2013-01-26 06:55:00,
2013-01-26 01:00:00,66.2,63.8,30.07,SSW,212,5.0,5.0,92,0.00,,,0.00,Wunderground v.1.15,2013-01-26 07:00:00,
2013-01-26 01:10:00,66.2,63.8,30.07,SSE,165,5.0,6.0,92,0.00,,,0.00,Wunderground v.1.15,2013-01-26 07:10:00,
2013-01-26 01:20:00,66.2,63.8,30.07,SSE,150,4.0,5.0,92,0.00,,,0.00,Wunderground v.1.15,2013-01-26 07:20:00,
2013-01-26 01:25:00,66.2,63.8,30.07,South,184,4.0,5.0,92,0.00,,,0.00,Wunderground v.1.15,2013-01-26 07:25:00,
2013-01-26 01:30:00,66.1,63.7,30.07,South,178,5.0,5.0,92,0.00,,,0.00,Wunderground v.1.15,2013-01-26 07:30:00,
2013-01-26 01:35:00,66.1,63.7,30.07,SSW,198,5.0,5.0,92,0.00,,,0.00,Wunderground v.1.15,2013-01-26 07:35:00,
2013-01-26 01:40:00,66.0,63.6,30.07,SE,145,5.0,5.0,92,0.00,,,0.00,Wunderground v.1.15,2013-01-26 07:40:00,
2013-01-26 01:45:00,66.0,63.6,30.07,SSE,156,5.0,8.0,92,0.00,,,0.00,Wunderground v.1.15,2013-01-26 07:45:00,
2013-01-26 01:55:00,65.9,63.8,30.06,South,191,5.0,8.0,93,0.00,,,0.00,Wunderground v.1.15,2013-01-26 07:55:00,
2013-01-26 02:00:00,65.9,63.8,30.07,South,187,5.0,5.0,93,0.00,,,0.00,Wunderground v.1.15,2013-01-26 08:00:00,
2013-01-26 02:10:00,65.9,63.8,30.07,South,176,5.0,10.0,93,0.00,,,0.00,Wunderground v.1.15,2013-01-26 08:10:00,
2013-01-26 02:15:00,65.8,63.7,30.06,SSE,149,5.0,10.0,93,0.00,,,0.00,Wunderground v.1.15,2013-01-26 08:15:00,
2013-01-26 02:25:00,65.9,63.8,30.07,SSE,160,5.0,7.0,93,0.00,,,0.00,Wunderground v.1.15,2013-01-26 08:25:00,
2013-01-26 02:30:00,65.8,63.7,30.07,SSE,164,5.0,5.0,93,0.00,,,0.00,Wunderground v.1.15,2013-01-26 08:30:00,
2013-01-26 02:35:00,65.8,63.7,30.07,SW,217,4.0,5.0,93,0.00,,,0.00,Wunderground v.1.15,2013-01-26 08:35:00,
2013-01-26 02:40:00,65.8,63.7,30.07,SE,130,5.0,6.0,93,0.00,,,0.00,Wunderground v.1.15,2013-01-26 08:40:00,
2013-01-26 02:45:00,65.8,63.7,30.07,SSE,162,4.0,6.0,93,0.00,,,0.00,Wunderground v.1.15,2013-01-26 08:45:00,
2013-01-26 02:50:00,65.8,63.7,30.06,South,169,3.0,3.0,93,0.00,,,0.00,Wunderground v.1.15,2013-01-26 08:50:00,
2013-01-26 03:00:00,65.6,63.5,30.06,South,186,4.0,4.0,93,0.00,,,0.00,Wunderground v.1.15,2013-01-26 09:00:00,
2013-01-26 03:10:00,65.6,63.5,30.06,South,176,4.0,4.0,93,0.00,,,0.00,Wunderground v.1.15,2013-01-26 09:10:00,
2013-01-26 03:15:00,65.4,63.3,30.06,South,173,3.0,5.0,93,0.00,,,0.00,Wunderground v.1.15,2013-01-26 09:15:00,
2013-01-26 03:20:00,65.4,63.3,30.06,ESE,103,3.0,6.0,93,0.00,,,0.00,Wunderground v.1.15,2013-01-26 09:20:00,
2013-01-26 03:30:00,65.2,63.4,30.06,SE,146,3.0,3.0,94,0.00,,,0.00,Wunderground v.1.15,2013-01-26 09:30:00,
2013-01-26 03:35:00,65.1,63.3,30.06,SSW,194,3.0,3.0,94,0.00,,,0.00,Wunderground v.1.15,2013-01-26 09:35:00,
2013-01-26 03:40:00,65.1,63.3,30.06,SE,128,3.0,4.0,94,0.00,,,0.00,Wunderground v.1.15,2013-01-26 09:40:00,
2013-01-26 03:45:00,65.0,63.2,30.06,SW,231,4.0,4.0,94,0.00,,,0.00,Wunderground v.1.15,2013-01-26 09:45:00,
2013-01-26 03:50:00,64.9,63.1,30.05,SE,143,4.0,4.0,94,0.00,,,0.00,Wunderground v.1.15,2013-01-26 09:50:00,
2013-01-26 03:55:00,64.9,63.1,30.05,SSW,210,4.0,4.0,94,0.00,,,0.00,Wunderground v.1.15,2013-01-26 09:55:00,
2013-01-26 04:00:00,64.9,63.1,30.05,SSW,194,4.0,7.0,94,0.00,,,0.00,Wunderground v.1.15,2013-01-26 10:00:00,
2013-01-26 04:10:00,65.0,63.2,30.05,South,176,4.0,7.0,94,0.00,,,0.00,Wunderground v.1.15,2013-01-26 10:10:00,
2013-01-26 04:15:00,65.0,63.2,30.05,SSE,165,5.0,7.0,94,0.00,,,0.00,Wunderground v.1.15,2013-01-26 10:15:00,
2013-01-26 04:20:00,65.1,63.3,30.05,SSE,153,5.0,5.0,94,0.00,,,0.00,Wunderground v.1.15,2013-01-26 10:20:00,
2013-01-26 04:25:00,65.1,63.3,30.05,SE,131,4.0,5.0,94,0.00,,,0.00,Wunderground v.1.15,2013-01-26 10:25:00,
2013-01-26 04:35:00,65.1,63.3,30.05,South,179,4.0,6.0,94,0.00,,,0.00,Wunderground v.1.15,2013-01-26 10:35:00,
2013-01-26 04:40:00,65.1,63.3,30.06,South,174,3.0,3.0,94,0.00,,,0.00,Wunderground v.1.15,2013-01-26 10:40:00,
2013-01-26 04:45:00,65.1,63.3,30.06,South,186,3.0,3.0,94,0.00,,,0.00,Wunderground v.1.15,2013-01-26 10:45:00,
2013-01-26 04:50:00,65.1,63.3,30.06,SE,134,3.0,3.0,94,0.00,,,0.00,Wunderground v.1.15,2013-01-26 10:50:00,
2013-01-26 04:55:00,65.0,63.2,30.05,SSW,204,3.0,7.0,94,0.00,,,0.00,Wunderground v.1.15,2013-01-26 10:55:00,
2013-01-26 05:00:00,64.9,63.1,30.05,SSE,158,4.0,4.0,94,0.00,,,0.00,Wunderground v.1.15,2013-01-26 11:00:00,
2013-01-26 05:10:00,64.7,62.9,30.05,South,177,4.0,6.0,94,0.00,,,0.00,Wunderground v.1.15,2013-01-26 11:10:00,
2013-01-26 05:15:00,64.7,62.9,30.05,SSW,194,4.0,6.0,94,0.00,,,0.00,Wunderground v.1.15,2013-01-26 11:15:00,
2013-01-26 05:20:00,64.7,62.9,30.05,SSE,165,4.0,5.0,94,0.00,,,0.00,Wunderground v.1.15,2013-01-26 11:20:00,
2013-01-26 05:25:00,64.6,62.8,30.06,SSW,208,4.0,5.0,94,0.00,,,0.00,Wunderground v.1.15,2013-01-26 11:25:00,
2013-01-26 05:30:00,64.6,62.8,30.06,South,186,4.0,4.0,94,0.00,,,0.00,Wunderground v.1.15,2013-01-26 11:30:00,
2013-01-26 05:45:00,64.5,62.7,30.06,SSE,148,3.0,3.0,94,0.00,,,0.00,Wunderground v.1.15,2013-01-26 11:45:00,
2013-01-26 05:50:00,64.5,62.7,30.06,South,172,3.0,5.0,94,0.00,,,0.00,Wunderground v.1.15,2013-01-26 11:50:00,
2013-01-26 05:55:00,64.5,62.7,30.06,ESE,110,3.0,5.0,94,0.00,,,0.00,Wunderground v.1.15,2013-01-26 11:55:00,
2013-01-26 06:00:00,64.6,62.8,30.06,South,172,3.0,6.0,94,0.00,,,0.00,Wunderground v.1.15,2013-01-26 12:00:00,
2013-01-26 06:10:00,64.7,62.9,30.06,SSW,203,4.0,4.0,94,0.00,,,0.00,Wunderground v.1.15,2013-01-26 12:10:00,
2013-01-26 06:15:00,64.7,62.9,30.07,SSE,159,4.0,5.0,94,0.00,,,0.00,Wunderground v.1.15,2013-01-26 12:15:00,
2013-01-26 06:20:00,64.7,62.9,30.07,SSE,167,4.0,4.0,94,0.00,,,0.00,Wunderground v.1.15,2013-01-26 12:20:00,
2013-01-26 06:29:00,64.7,62.9,30.07,SSE,160,4.0,8.0,94,0.00,,,0.00,Wunderground v.1.15,2013-01-26 12:29:00,
2013-01-26 06:34:00,64.7,62.9,30.07,SSE,164,5.0,8.0,94,0.00,,,0.00,Wunderground v.1.15,2013-01-26 12:34:00,
2013-01-26 06:39:00,64.7,62.9,30.07,SE,142,5.0,6.0,94,0.00,,,0.00,Wunderground v.1.15,2013-01-26 12:39:00,
2013-01-26 06:45:00,64.7,62.9,30.07,SE,141,4.0,6.0,94,0.00,,,0.00,Wunderground v.1.15,2013-01-26 12:45:00,
2013-01-26 06:50:00,64.7,62.9,30.07,SSE,156,4.0,4.0,94,0.00,,,0.00,Wunderground v.1.15,2013-01-26 12:50:00,
2013-01-26 06:55:00,64.7,62.9,30.07,SSE,167,4.0,4.0,94,0.00,,,0.00,Wunderground v.1.15,2013-01-26 12:55:00,
2013-01-26 07:00:00,64.6,62.8,30.07,SSE,152,5.0,9.0,94,0.00,,,0.00,Wunderground v.1.15,2013-01-26 13:00:00,
2013-01-26 07:08:00,64.6,62.5,30.07,South,182,4.0,9.0,93,0.00,,,0.00,Wunderground v.1.15,2013-01-26 13:08:00,
2013-01-26 07:15:00,64.5,62.4,30.07,South,181,5.0,7.0,93,0.00,,,0.00,Wunderground v.1.15,2013-01-26 13:15:00,
2013-01-26 07:20:00,64.5,62.4,30.07,South,169,4.0,4.0,93,0.00,,,0.00,Wunderground v.1.15,2013-01-26 13:20:00,
2013-01-26 07:25:00,64.6,62.5,30.08,SSE,158,3.0,4.0,93,0.00,,,0.00,Wunderground v.1.15,2013-01-26 13:25:00,
2013-01-26 07:30:00,64.6,62.5,30.08,SSE,156,3.0,4.0,93,0.00,,,0.00,Wunderground v.1.15,2013-01-26 13:30:00,
2013-01-26 07:35:00,64.7,62.6,30.08,South,174,3.0,4.0,93,0.00,,,0.00,Wunderground v.1.15,2013-01-26 13:35:00,
2013-01-26 07:45:00,65.0,62.9,30.08,SE,136,3.0,3.0,93,0.00,,,0.00,Wunderground v.1.15,2013-01-26 13:45:00,
2013-01-26 07:50:00,65.2,62.8,30.08,SE,146,3.0,3.0,92,0.00,,,0.00,Wunderground v.1.15,2013-01-26 13:50:00,
2013-01-26 07:55:00,65.6,63.2,30.09,SSE,163,3.0,3.0,92,0.00,,,0.00,Wunderground v.1.15,2013-01-26 13:55:00,
2013-01-26 08:00:00,65.9,63.5,30.09,South,191,3.0,3.0,92,0.00,,,0.00,Wunderground v.1.15,2013-01-26 14:00:00,
2013-01-26 08:15:00,66.9,63.9,30.09,SSW,197,3.0,5.0,90,0.00,,,0.00,Wunderground v.1.15,2013-01-26 14:15:00,
2013-01-26 08:20:00,67.2,63.8,30.09,SE,146,4.0,4.0,89,0.00,,,0.00,Wunderground v.1.15,2013-01-26 14:20:00,
2013-01-26 08:25:00,67.6,64.2,30.09,SSW,200,4.0,4.0,89,0.00,,,0.00,Wunderground v.1.15,2013-01-26 14:25:00,
2013-01-26 08:30:00,67.9,64.2,30.09,SW,219,3.0,3.0,88,0.00,,,0.00,Wunderground v.1.15,2013-01-26 14:30:00,
2013-01-26 08:35:00,68.1,64.1,30.09,SSE,159,4.0,4.0,87,0.00,,,0.00,Wunderground v.1.15,2013-01-26 14:35:00,
2013-01-26 08:40:00,68.4,64.4,30.10,SSE,148,5.0,5.0,87,0.00,,,0.00,Wunderground v.1.15,2013-01-26 14:40:00,
2013-01-26 08:50:00,69.2,64.8,30.10,SSE,162,5.0,5.0,86,0.00,,,0.00,Wunderground v.1.15,2013-01-26 14:50:00,
2013-01-26 08:55:00,69.3,64.6,30.10,South,184,5.0,5.0,85,0.00,,,0.00,Wunderground v.1.15,2013-01-26 14:55:00,
2013-01-26 09:00:00,69.7,65.0,30.10,SW,229,5.0,5.0,85,0.00,,,0.00,Wunderground v.1.15,2013-01-26 15:00:00,
2013-01-26 09:10:00,70.2,64.8,30.10,SSE,163,6.0,9.0,83,0.00,,,0.00,Wunderground v.1.15,2013-01-26 15:10:00,
2013-01-26 09:15:00,70.4,64.6,30.10,SE,143,6.0,9.0,82,0.00,,,0.00,Wunderground v.1.15,2013-01-26 15:15:00,
2013-01-26 09:25:00,71.1,65.3,30.10,SSE,156,4.0,9.0,82,0.00,,,0.00,Wunderground v.1.15,2013-01-26 15:25:00,
2013-01-26 09:30:00,71.5,65.4,30.11,South,188,5.0,5.0,81,0.00,,,0.00,Wunderground v.1.15,2013-01-26 15:30:00,
2013-01-26 09:35:00,71.8,65.3,30.11,South,174,5.0,5.0,80,0.00,,,0.00,Wunderground v.1.15,2013-01-26 15:35:00,
2013-01-26 09:40:00,72.1,64.9,30.11,SSE,155,6.0,7.0,78,0.00,,,0.00,Wunderground v.1.15,2013-01-26 15:40:00,
2013-01-26 09:45:00,72.0,65.1,30.11,South,174,6.0,7.0,79,0.00,,,0.00,Wunderground v.1.15,2013-01-26 15:45:00,
2013-01-26 09:55:00,72.4,64.8,30.11,SW,231,7.0,10.0,77,0.00,,,0.00,Wunderground v.1.15,2013-01-26 15:55:00,
2013-01-26 10:00:00,72.4,64.8,30.11,South,178,8.0,9.0,77,0.00,,,0.00,Wunderground v.1.15,2013-01-26 16:00:00,
2013-01-26 10:10:00,72.8,65.2,30.11,SSW,208,8.0,12.0,77,0.00,,,0.00,Wunderground v.1.15,2013-01-26 16:10:00,
2013-01-26 10:15:00,73.0,65.0,30.11,South,169,7.0,12.0,76,0.00,,,0.00,Wunderground v.1.15,2013-01-26 16:15:00,
2013-01-26 10:20:00,73.1,65.5,30.11,SE,134,7.0,7.0,77,0.00,,,0.00,Wunderground v.1.15,2013-01-26 16:20:00,
2013-01-26 10:30:00,73.6,65.2,30.11,SSW,201,7.0,7.0,75,0.00,,,0.00,Wunderground v.1.15,2013-01-26 16:30:00,
2013-01-26 10:35:00,73.6,64.8,30.11,South,184,7.0,7.0,74,0.00,,,0.00,Wunderground v.1.15,2013-01-26 16:35:00,
2013-01-26 10:40:00,73.7,64.9,30.11,SSE,162,8.0,13.0,74,0.00,,,0.00,Wunderground v.1.15,2013-01-26 16:40:00,
2013-01-26 10:45:00,73.5,64.7,30.11,SSE,164,9.0,13.0,74,0.00,,,0.00,Wunderground v.1.15,2013-01-26 16:45:00,
2013-01-26 10:50:00,73.5,64.7,30.11,SSE,148,9.0,9.0,74,0.00,,,0.00,Wunderground v.1.15,2013-01-26 16:50:00,
2013-01-26 11:00:00,74.0,64.8,30.11,SSW,194,8.0,15.0,73,0.00,,,0.00,Wunderground v.1.15,2013-01-26 17:00:00,
2013-01-26 11:09:00,74.1,64.9,30.11,SE,135,10.0,12.0,73,0.00,,,0.00,Wunderground v.1.15,2013-01-26 17:09:00,
2013-01-26 11:14:00,74.4,64.8,30.11,South,172,9.0,16.0,72,0.00,,,0.00,Wunderground v.1.15,2013-01-26 17:14:00,
2013-01-26 11:19:00,74.2,64.2,30.11,South,173,10.0,10.0,71,0.00,,,0.00,Wunderground v.1.15,2013-01-26 17:19:00,
2013-01-26 11:24:00,74.5,64.5,30.11,SSE,163,9.0,10.0,71,0.00,,,0.00,Wunderground v.1.15,2013-01-26 17:24:00,
2013-01-26 11:30:00,74.7,63.9,30.10,SSW,194,10.0,10.0,69,0.00,,,0.00,Wunderground v.1.15,2013-01-26 17:30:00,
2013-01-26 11:35:00,74.5,64.1,30.10,South,177,11.0,11.0,70,0.00,,,0.00,Wunderground v.1.15,2013-01-26 17:35:00,
2013-01-26 11:40:00,74.5,63.7,30.10,South,189,10.0,12.0,69,0.00,,,0.00,Wunderground v.1.15,2013-01-26 17:40:00,
2013-01-26 11:45:00,74.7,64.3,30.10,SSW,207,9.0,12.0,70,0.00,,,0.00,Wunderground v.1.15,2013-01-26 17:45:00,
2013-01-26 11:50:00,75.0,63.3,30.10,SSE,149,9.0,9.0,67,0.00,,,0.00,Wunderground v.1.15,2013-01-26 17:50:00,
2013-01-26 12:00:00,75.1,63.8,30.09,South,183,9.0,9.0,68,0.00,,,0.00,Wunderground v.1.15,2013-01-26 18:00:00,
2013-01-26 12:09:00,75.5,63.8,30.09,South,174,8.0,11.0,67,0.00,,,0.00,Wunderground v.1.15,2013-01-26 18:09:00,
2013-01-26 12:14:00,75.7,63.5,30.09,SE,139,9.0,11.0,66,0.00,,,0.00,Wunderground v.1.15,2013-01-26 18:14:00,
2013-01-26 12:19:00,75.8,64.1,30.08,SE,143,8.0,8.0,67,0.00,,,0.00,Wunderground v.1.15,2013-01-26 18:19:00,
2013-01-26 12:24:00,75.7,64.0,30.08,SE,136,8.0,8.0,67,0.00,,,0.00,Wunderground v.1.15,2013-01-26 18:24:00,
2013-01-26 12:29:00,75.7,64.0,30.08,SW,226,9.0,12.0,67,0.00,,,0.00,Wunderground v.1.15,2013-01-26 18:29:00,
2013-01-26 12:39:00,75.5,63.8,30.08,SSW,193,11.0,15.0,67,0.00,,,0.00,Wunderground v.1.15,2013-01-26 18:39:00,
2013-01-26 12:44:00,75.4,63.7,30.08,ESE,120,10.0,15.0,67,0.00,,,0.00,Wunderground v.1.15,2013-01-26 18:44:00,
2013-01-26 12:49:00,75.1,63.8,30.07,South,186,10.0,20.0,68,0.00,,,0.00,Wunderground v.1.15,2013-01-26 18:49:00,
2013-01-26 12:54:00,75.2,63.9,30.07,ESE,122,10.0,20.0,68,0.00,,,0.00,Wunderground v.1.15,2013-01-26 18:54:00,
2013-01-26 13:00:00,75.6,64.3,30.07,South,189,8.0,8.0,68,0.00,,,0.00,Wunderground v.1.15,2013-01-26 19:00:00,
2013-01-26 13:09:00,75.4,63.7,30.07,SSE,164,9.0,15.0,67,0.00,,,0.00,Wunderground v.1.15,2013-01-26 19:09:00,
2013-01-26 13:14:00,75.4,64.1,30.07,South,170,9.0,15.0,68,0.00,,,0.00,Wunderground v.1.15,2013-01-26 19:14:00,
2013-01-26 13:19:00,75.3,63.6,30.07,SSE,166,9.0,11.0,67,0.00,,,0.00,Wunderground v.1.15,2013-01-26 19:19:00,
2013-01-26 13:24:00,75.4,64.1,30.06,SSE,159,9.0,11.0,68,0.00,,,0.00,Wunderground v.1.15,2013-01-26 19:24:00,
2013-01-26 13:29:00,75.4,63.7,30.06,SE,143,8.0,15.0,67,0.00,,,0.00,Wunderground v.1.15,2013-01-26 19:29:00,
2013-01-26 13:34:00,75.5,63.3,30.06,SSE,160,8.0,15.0,66,0.00,,,0.00,Wunderground v.1.15,2013-01-26 19:34:00,
2013-01-26 13:44:00,75.0,63.3,30.06,SE,138,10.0,18.0,67,0.00,,,0.00,Wunderground v.1.15,2013-01-26 19:44:00,
2013-01-26 13:49:00,75.0,62.9,30.06,SE,134,11.0,11.0,66,0.00,,,0.00,Wunderground v.1.15,2013-01-26 19:49:00,
2013-01-26 13:54:00,74.9,62.8,30.06,SSE,152,11.0,16.0,66,0.00,,,0.00,Wunderground v.1.15,2013-01-26 19:54:00,
2013-01-26 14:00:00,75.1,63.0,30.05,South,177,11.0,11.0,66,0.00,,,0.00,Wunderground v.1.15,2013-01-26 20:00:00,
2013-01-26 14:10:00,75.0,62.9,30.05,SSE,166,11.0,12.0,66,0.00,,,0.00,Wunderground v.1.15,2013-01-26 20:10:00,
2013-01-26 14:20:00,75.2,62.6,30.05,SSE,147,10.0,10.0,65,0.00,,,0.00,Wunderground v.1.15,2013-01-26 20:20:00,
2013-01-26 14:25:00,75.2,63.1,30.05,South,184,10.0,10.0,66,0.00,,,0.00,Wunderground v.1.15,2013-01-26 20:25:00,
2013-01-26 14:30:00,75.0,62.9,30.05,SE,146,11.0,18.0,66,0.00,,,0.00,Wunderground v.1.15,2013-01-26 20:30:00,
2013-01-26 14:35:00,75.1,62.5,30.05,SSE,150,11.0,18.0,65,0.00,,,0.00,Wunderground v.1.15,2013-01-26 20:35:00,
2013-01-26 14:40:00,75.3,63.2,30.04,SSE,160,10.0,10.0,66,0.00,,,0.00,Wunderground v.1.15,2013-01-26 20:40:00,
2013-01-26 14:49:00,75.8,63.2,30.04,South,176,7.0,7.0,65,0.00,,,0.00,Wunderground v.1.15,2013-01-26 20:49:00,
2013-01-26 14:54:00,75.4,62.8,30.04,ESE,113,8.0,12.0,65,0.00,,,0.00,Wunderground v.1.15,2013-01-26 20:54:00,
2013-01-26 15:00:00,75.3,62.7,30.04,SE,145,9.0,9.0,65,0.00,,,0.00,Wunderground v.1.15,2013-01-26 21:00:00,
2013-01-26 15:10:00,75.6,63.4,30.04,South,185,8.0,12.0,66,0.00,,,0.00,Wunderground v.1.15,2013-01-26 21:10:00,
2013-01-26 15:15:00,75.1,62.5,30.04,South,181,9.0,17.0,65,0.00,,,0.00,Wunderground v.1.15,2013-01-26 21:15:00,
2013-01-26 15:25:00,75.2,62.6,30.03,ESE,115,8.0,15.0,65,0.00,,,0.00,Wunderground v.1.15,2013-01-26 21:25:00,
2013-01-26 15:30:00,75.1,63.0,30.03,SE,134,8.0,8.0,66,0.00,,,0.00,Wunderground v.1.15,2013-01-26 21:30:00,
2013-01-26 15:35:00,75.1,63.0,30.03,SE,145,8.0,8.0,66,0.00,,,0.00,Wunderground v.1.15,2013-01-26 21:35:00,
2013-01-26 15:40:00,74.8,62.7,30.03,SE,143,8.0,8.0,66,0.00,,,0.00,Wunderground v.1.15,2013-01-26 21:40:00,
2013-01-26 15:45:00,74.6,62.9,30.03,South,181,9.0,9.0,67,0.00,,,0.00,Wunderground v.1.15,2013-01-26 21:45:00,
2013-01-26 15:54:00,74.5,62.8,30.02,SSE,167,8.0,11.0,67,0.00,,,0.00,Wunderground v.1.15,2013-01-26 21:54:00,
2013-01-26 16:00:00,74.7,63.4,30.02,East,95,7.0,7.0,68,0.00,,,0.00,Wunderground v.1.15,2013-01-26 22:00:00,
2013-01-26 16:10:00,74.0,63.2,30.02,SE,135,8.0,11.0,69,0.00,,,0.00,Wunderground v.1.15,2013-01-26 22:10:00,
2013-01-26 16:15:00,74.1,63.3,30.02,SSE,167,8.0,11.0,69,0.00,,,0.00,Wunderground v.1.15,2013-01-26 22:15:00,
2013-01-26 16:20:00,74.2,63.0,30.02,SE,145,8.0,10.0,68,0.00,,,0.00,Wunderground v.1.15,2013-01-26 22:20:00,
2013-01-26 16:30:00,73.7,63.3,30.02,SE,124,8.0,8.0,70,0.00,,,0.00,Wunderground v.1.15,2013-01-26 22:30:00,
2013-01-26 16:35:00,73.7,63.3,30.02,SSW,201,7.0,13.0,70,0.00,,,0.00,Wunderground v.1.15,2013-01-26 22:35:00,
2013-01-26 16:40:00,73.6,63.2,30.02,SE,141,7.0,8.0,70,0.00,,,0.00,Wunderground v.1.15,2013-01-26 22:40:00,
2013-01-26 16:45:00,73.5,63.1,30.02,SSE,165,8.0,8.0,70,0.00,,,0.00,Wunderground v.1.15,2013-01-26 22:45:00,
2013-01-26 16:50:00,73.3,63.3,30.02,SSE,166,8.0,8.0,71,0.00,,,0.00,Wunderground v.1.15,2013-01-26 22:50:00,
2013-01-26 17:00:00,73.0,63.0,30.02,ESE,119,8.0,8.0,71,0.00,,,0.00,Wunderground v.1.15,2013-01-26 23:00:00,
2013-01-26 17:10:00,72.6,63.1,30.03,ESE,118,7.0,10.0,72,0.00,,,0.00,Wunderground v.1.15,2013-01-26 23:10:00,
2013-01-26 17:15:00,72.2,63.1,30.02,ESE,103,8.0,10.0,73,0.00,,,0.00,Wunderground v.1.15,2013-01-26 23:15:00,
2013-01-26 17:20:00,72.1,63.0,30.02,East,96,7.0,16.0,73,0.00,,,0.00,Wunderground v.1.15,2013-01-26 23:20:00,
2013-01-26 17:25:00,71.9,62.8,30.03,SSE,153,8.0,16.0,73,0.00,,,0.00,Wunderground v.1.15,2013-01-26 23:25:00,
2013-01-26 17:35:00,71.7,63.0,30.03,SE,132,5.0,7.0,74,0.00,,,0.00,Wunderground v.1.15,2013-01-26 23:35:00,
2013-01-26 17:40:00,71.4,62.7,30.03,SE,145,7.0,7.0,74,0.00,,,0.00,Wunderground v.1.15,2013-01-26 23:40:00,
2013-01-26 17:45:00,71.0,62.7,30.03,ESE,109,6.0,7.0,75,0.00,,,0.00,Wunderground v.1.15,2013-01-26 23:45:00,
2013-01-26 17:50:00,70.7,62.8,30.03,ESE,115,6.0,6.0,76,0.00,,,0.00,Wunderground v.1.15,2013-01-26 23:50:00,
2013-01-26 17:55:00,70.4,62.8,30.03,ESE,120,6.0,6.0,77,0.00,,,0.00,Wunderground v.1.15,2013-01-26 23:55:00,
2013-01-26 18:00:00,70.2,63.4,30.03,ESE,122,6.0,6.0,79,0.00,,,0.00,Wunderground v.1.15,2013-01-27 00:00:00,
2013-01-26 18:10:00,69.7,63.3,30.03,ESE,122,5.0,10.0,80,0.00,,,0.00,Wunderground v.1.15,2013-01-27 00:10:00,
2013-01-26 18:15:00,69.5,63.4,30.03,East,91,5.0,10.0,81,0.00,,,0.00,Wunderground v.1.15,2013-01-27 00:15:00,
2013-01-26 18:20:00,69.3,63.9,30.03,East,92,5.0,5.0,83,0.00,,,0.00,Wunderground v.1.15,2013-01-27 00:20:00,
2013-01-26 18:25:00,69.0,63.6,30.04,East,99,5.0,7.0,83,0.00,,,0.00,Wunderground v.1.15,2013-01-27 00:25:00,
2013-01-26 18:30:00,68.8,63.8,30.04,SE,129,5.0,5.0,84,0.00,,,0.00,Wunderground v.1.15,2013-01-27 00:30:00,
2013-01-26 18:40:00,68.3,63.9,30.04,ESE,117,3.0,3.0,86,0.00,,,0.00,Wunderground v.1.15,2013-01-27 00:40:00,
2013-01-26 18:45:00,68.1,63.8,30.04,SSE,149,3.0,7.0,86,0.00,,,0.00,Wunderground v.1.15,2013-01-27 00:45:00,
2013-01-26 18:50:00,67.9,63.6,30.04,SE,124,4.0,4.0,86,0.00,,,0.00,Wunderground v.1.15,2013-01-27 00:50:00,
2013-01-26 18:55:00,67.7,63.7,30.04,ESE,117,4.0,4.0,87,0.00,,,0.00,Wunderground v.1.15,2013-01-27 00:55:00,
2013-01-26 19:00:00,67.6,63.6,30.04,SE,131,4.0,5.0,87,0.00,,,0.00,Wunderground v.1.15,2013-01-27 01:00:00,
2013-01-26 19:10:00,67.5,63.5,30.04,SE,133,5.0,5.0,87,0.00,,,0.00,Wunderground v.1.15,2013-01-27 01:10:00,
2013-01-26 19:15:00,67.4,63.4,30.04,South,172,4.0,5.0,87,0.00,,,0.00,Wunderground v.1.15,2013-01-27 01:15:00,
2013-01-26 19:20:00,67.4,63.4,30.04,SE,135,4.0,5.0,87,0.00,,,0.00,Wunderground v.1.15,2013-01-27 01:20:00,
2013-01-26 19:29:00,67.5,63.2,30.04,SE,145,4.0,5.0,86,0.00,,,0.00,Wunderground v.1.15,2013-01-27 01:29:00,
2013-01-26 19:34:00,67.4,63.4,30.04,ESE,109,4.0,9.0,87,0.00,,,0.00,Wunderground v.1.15,2013-01-27 01:34:00,
2013-01-26 19:40:00,67.2,63.2,30.04,East,101,4.0,6.0,87,0.00,,,0.00,Wunderground v.1.15,2013-01-27 01:40:00,
2013-01-26 19:45:00,67.1,63.1,30.04,SE,136,5.0,8.0,87,0.00,,,0.00,Wunderground v.1.15,2013-01-27 01:45:00,
2013-01-26 19:50:00,67.0,63.0,30.04,ESE,115,7.0,7.0,87,0.00,,,0.00,Wunderground v.1.15,2013-01-27 01:50:00,
2013-01-26 19:55:00,67.0,63.0,30.04,East,101,7.0,7.0,87,0.00,,,0.00,Wunderground v.1.15,2013-01-27 01:55:00,
2013-01-26 20:00:00,66.9,62.9,30.04,SE,131,5.0,8.0,87,0.00,,,0.00,Wunderground v.1.15,2013-01-27 02:00:00,
2013-01-26 20:09:00,66.9,63.2,30.05,ESE,105,6.0,6.0,88,0.00,,,0.00,Wunderground v.1.15,2013-01-27 02:09:00,
2013-01-26 20:19:00,66.8,63.1,30.05,East,93,5.0,6.0,88,0.00,,,0.00,Wunderground v.1.15,2013-01-27 02:19:00,
2013-01-26 20:24:00,66.7,63.0,30.05,SE,128,5.0,6.0,88,0.00,,,0.00,Wunderground v.1.15,2013-01-27 02:24:00,
2013-01-26 20:29:00,66.7,63.0,30.05,SSW,195,5.0,5.0,88,0.00,,,0.00,Wunderground v.1.15,2013-01-27 02:29:00,
2013-01-26 20:34:00,66.6,62.9,30.05,East,101,4.0,5.0,88,0.00,,,0.00,Wunderground v.1.15,2013-01-27 02:34:00,
2013-01-26 20:39:00,66.6,63.3,30.05,ESE,121,3.0,6.0,89,0.00,,,0.00,Wunderground v.1.15,2013-01-27 02:39:00,
2013-01-26 20:45:00,66.5,63.2,30.06,SSE,155,3.0,6.0,89,0.00,,,0.00,Wunderground v.1.15,2013-01-27 02:45:00,
2013-01-26 20:50:00,66.7,63.4,30.06,ESE,122,4.0,6.0,89,0.00,,,0.00,Wunderground v.1.15,2013-01-27 02:50:00,
2013-01-26 20:55:00,66.9,63.2,30.06,ESE,112,5.0,6.0,88,0.00,,,0.00,Wunderground v.1.15,2013-01-27 02:55:00,
2013-01-26 21:04:00,67.1,63.1,30.06,ESE,117,5.0,11.0,87,0.00,,,0.00,Wunderground v.1.15,2013-01-27 03:04:00,
2013-01-26 21:09:00,67.1,63.1,30.06,SE,131,5.0,5.0,87,0.00,,,0.00,Wunderground v.1.15,2013-01-27 03:09:00,
2013-01-26 21:14:00,67.1,63.1,30.06,SE,134,4.0,5.0,87,0.00,,,0.00,Wunderground v.1.15,2013-01-27 03:14:00,
2013-01-26 21:24:00,67.0,63.0,30.06,SE,146,3.0,7.0,87,0.00,,,0.00,Wunderground v.1.15,2013-01-27 03:24:00,
2013-01-26 21:29:00,66.9,62.6,30.06,SE,138,3.0,4.0,86,0.00,,,0.00,Wunderground v.1.15,2013-01-27 03:29:00,
2013-01-26 21:34:00,66.9,62.6,30.07,SSE,159,3.0,5.0,86,0.00,,,0.00,Wunderground v.1.15,2013-01-27 03:34:00,
2013-01-26 21:39:00,66.9,62.6,30.07,South,176,4.0,4.0,86,0.00,,,0.00,Wunderground v.1.15,2013-01-27 03:39:00,
2013-01-26 21:44:00,66.9,62.6,30.07,SSE,158,4.0,7.0,86,0.00,,,0.00,Wunderground v.1.15,2013-01-27 03:44:00,
2013-01-26 21:54:00,66.9,62.6,30.07,SE,133,4.0,4.0,86,0.00,,,0.00,Wunderground v.1.15,2013-01-27 03:54:00,
2013-01-26 22:00:00,66.8,62.5,30.07,South,177,4.0,4.0,86,0.00,,,0.00,Wunderground v.1.15,2013-01-27 04:00:00,
2013-01-26 22:10:00,66.7,62.4,30.07,ESE,102,3.0,3.0,86,0.00,,,0.00,Wunderground v.1.15,2013-01-27 04:10:00,
2013-01-26 22:15:00,66.6,62.3,30.08,South,174,4.0,4.0,86,0.00,,,0.00,Wunderground v.1.15,2013-01-27 04:15:00,
2013-01-26 22:20:00,66.6,62.3,30.07,ESE,122,4.0,8.0,86,0.00,,,0.00,Wunderground v.1.15,2013-01-27 04:20:00,
2013-01-26 22:29:00,66.5,62.2,30.07,ESE,115,4.0,6.0,86,0.00,,,0.00,Wunderground v.1.15,2013-01-27 04:29:00,
2013-01-26 22:34:00,66.5,62.2,30.07,ESE,122,3.0,6.0,86,0.00,,,0.00,Wunderground v.1.15,2013-01-27 04:34:00,
2013-01-26 22:40:00,66.4,62.1,30.08,East,90,3.0,6.0,86,0.00,,,0.00,Wunderground v.1.15,2013-01-27 04:40:00,
2013-01-26 22:45:00,66.3,62.3,30.07,ESE,117,3.0,6.0,87,0.00,,,0.00,Wunderground v.1.15,2013-01-27 04:45:00,
2013-01-26 22:50:00,66.2,62.2,30.07,South,174,2.0,2.0,87,0.00,,,0.00,Wunderground v.1.15,2013-01-27 04:50:00,
2013-01-26 23:00:00,66.2,62.2,30.07,SSE,165,3.0,3.0,87,0.00,,,0.00,Wunderground v.1.15,2013-01-27 05:00:00,
2013-01-26 23:05:00,66.2,62.2,30.07,SSW,207,3.0,3.0,87,0.00,,,0.00,Wunderground v.1.15,2013-01-27 05:05:00,
2013-01-26 23:10:00,66.3,62.3,30.07,ESE,118,3.0,3.0,87,0.00,,,0.00,Wunderground v.1.15,2013-01-27 05:10:00,
2013-01-26 23:15:00,66.4,62.4,30.07,SE,135,3.0,5.0,87,0.00,,,0.00,Wunderground v.1.15,2013-01-27 05:15:00,
2013-01-26 23:25:00,66.4,62.4,30.07,SE,133,3.0,3.0,87,0.00,,,0.00,Wunderground v.1.15,2013-01-27 05:25:00,
2013-01-26 23:30:00,66.4,62.4,30.07,SSE,166,2.0,2.0,87,0.00,,,0.00,Wunderground v.1.15,2013-01-27 05:30:00,
2013-01-26 23:35:00,66.4,62.4,30.07,SE,138,2.0,2.0,87,0.00,,,0.00,Wunderground v.1.15,2013-01-27 05:35:00,
2013-01-26 23:40:00,66.3,62.6,30.07,ESE,120,2.0,3.0,88,0.00,,,0.00,Wunderground v.1.15,2013-01-27 05:40:00,
2013-01-26 23:45:00,66.3,62.6,30.06,SE,136,2.0,3.0,88,0.00,,,0.00,Wunderground v.1.15,2013-01-27 05:45:00,
2013-01-26 23:50:00,66.2,62.5,30.06,SE,126,2.0,2.0,88,0.00,,,0.00,Wunderground v.1.15,2013-01-27 05:50:00,
2013-01-26 23:55:00,66.2,62.5,30.06,SSE,159,2.0,3.0,88,0.00,,,0.00,Wunderground v.1.15,2013-01-27 05:55:00,